START_TIME,STEP,MOV.,M15,t_acc.,M20,t_acc.
1979-03-02 12:00:33.370 ,4,1,0.,24.0,0.,24.0
1979-03-02 12:00:57.370 ,3,1,0.,24.0,0.,24.0
1979-03-02 12:01:21.370 ,2,1,0.,24.0,0.,24.0
1979-03-02 12:01:45.370 ,1,1,0.,24.0,0.,24.0
1979-03-02 12:02:09.370 ,0,1,0.,24.0,0.,24.0
1979-03-02 12:02:33.370 ,0,1,0.,24.0,0.,24.0
1979-03-02 12:02:57.370 ,1,1,0.,24.0,0.,24.0
1979-03-02 12:03:21.370 ,2,1,0.,24.0,0.,24.0
1979-03-02 12:03:45.370 ,3,1,0.,24.0,0.,24.0
1979-03-02 12:04:09.370 ,4,1,0.,24.0,0.,24.0
1979-03-02 12:04:33.370 ,5,1,0.,24.0,0.,24.0
1979-03-02 12:04:57.370 ,6,1,0.,24.0,0.,24.0
1979-03-02 12:05:21.370 ,7,1,0.,24.0,0.,24.0
1979-03-02 12:06:33.370 ,0,0,0.,24.0,0.,24.0
1979-03-02 12:06:57.370 ,4,1,0.,24.0,0.,24.0
1979-03-02 12:07:21.370 ,3,1,0.,24.0,0.,24.0
1979-03-02 12:07:45.370 ,2,1,0.,24.0,0.,24.0
1979-03-02 12:08:09.370 ,1,1,0.,24.0,0.,24.0
1979-03-02 12:08:33.370 ,0,1,0.,24.0,0.,24.0
1979-03-02 12:08:57.370 ,0,1,0.,24.0,0.,24.0
1979-03-02 12:09:21.370 ,1,1,0.,24.0,0.,24.0
1979-03-02 12:09:45.370 ,2,1,0.,24.0,0.,24.0
1979-03-02 12:10:09.370 ,3,1,0.,24.0,0.,24.0
1979-03-02 12:10:33.370 ,4,1,0.,24.0,0.,24.0
1979-03-02 12:10:57.370 ,5,1,0.,24.0,0.,24.0
1979-03-02 12:11:21.370 ,6,1,0.,24.0,0.,24.0
1979-03-02 12:11:45.370 ,7,1,0.,24.0,0.,24.0
1979-03-02 12:12:09.370 ,7,1,0.,24.0,0.,24.0
1979-03-02 12:12:33.370 ,6,1,0.,24.0,0.,24.0
1979-03-02 12:12:57.370 ,5,1,0.,24.0,0.,24.0
1979-03-02 12:13:21.370 ,4,1,0.,24.0,0.,24.0
1979-03-02 12:13:45.370 ,3,1,0.,24.0,0.,24.0
1979-03-02 12:14:09.370 ,2,1,0.,24.0,0.,24.0
1979-03-02 12:14:33.370 ,1,1,0.,24.0,0.,24.0
1979-03-02 12:14:57.370 ,0,1,0.,24.0,0.,24.0
1979-03-02 12:15:21.370 ,0,1,0.,24.0,0.,24.0
1979-03-02 12:15:45.370 ,1,1,0.,24.0,0.,24.0
1979-03-02 12:16:09.370 ,2,1,0.,24.0,0.,24.0
1979-03-02 12:16:33.370 ,3,1,0.,24.0,0.,24.0
1979-03-02 12:16:57.370 ,4,1,0.,24.0,0.,24.0
1979-03-02 12:17:21.370 ,5,1,0.,24.0,0.,24.0
1979-03-02 12:17:45.370 ,6,1,0.,24.0,0.,24.0
1979-03-02 12:18:09.370 ,7,1,0.,24.0,0.,24.0
1979-03-02 12:18:33.370 ,7,1,0.,24.0,0.,24.0
1979-03-02 12:18:57.370 ,6,1,0.,24.0,0.,24.0
1979-03-02 12:19:21.370 ,5,1,0.,24.0,0.,24.0
1979-03-02 12:19:45.370 ,4,1,0.,24.0,0.,24.0
1979-03-02 12:20:09.370 ,3,1,0.,24.0,0.,24.0
1979-03-02 12:20:33.370 ,2,1,0.,24.0,0.,24.0
1979-03-02 12:20:57.370 ,1,1,0.,24.0,0.,24.0
1979-03-02 12:21:21.370 ,0,1,0.,24.0,0.,24.0
1979-03-02 12:21:45.370 ,0,1,0.,24.0,0.,24.0
1979-03-02 12:22:09.370 ,1,1,0.,24.0,0.,24.0
1979-03-02 12:22:33.370 ,2,1,0.,24.0,0.,24.0
1979-03-02 12:22:57.370 ,3,1,0.,24.0,0.,24.0
1979-03-02 12:23:21.370 ,4,1,0.,24.0,0.,24.0
1979-03-02 12:23:45.370 ,5,1,0.,24.0,0.,24.0
1979-03-02 12:24:09.370 ,6,1,0.,24.0,0.,24.0
1979-03-02 12:24:33.370 ,7,1,0.,24.0,0.,24.0
1979-03-02 12:24:57.370 ,7,1,0.,24.0,0.,24.0
1979-03-02 12:25:21.370 ,6,1,0.,24.0,0.,24.0
1979-03-02 12:25:45.370 ,5,1,0.,24.0,0.,24.0
1979-03-02 12:26:09.370 ,4,1,0.,24.0,0.,24.0
1979-03-02 12:26:33.370 ,3,1,0.,24.0,0.,24.0
1979-03-02 12:26:57.370 ,2,1,0.,24.0,0.,24.0
1979-03-02 12:27:21.370 ,1,1,0.,24.0,0.,24.0
1979-03-02 12:27:45.370 ,0,1,0.,24.0,0.,24.0
1979-03-02 12:28:09.370 ,0,1,0.,24.0,0.,24.0
1979-03-02 12:28:33.370 ,1,1,0.,24.0,0.,24.0
1979-03-02 12:28:57.370 ,2,1,0.,24.0,0.,24.0
1979-03-02 12:29:21.370 ,3,1,0.,24.0,0.,24.0
1979-03-02 12:29:45.370 ,4,1,0.,24.0,0.,24.0
1979-03-02 12:30:09.370 ,5,1,0.,24.0,0.,24.0
1979-03-02 12:30:33.370 ,6,1,0.,24.0,0.,24.0
1979-03-02 12:30:57.370 ,7,1,0.,24.0,0.,24.0
1979-03-02 12:31:21.370 ,7,1,0.,24.0,0.,24.0
1979-03-02 12:31:45.370 ,6,1,0.,24.0,0.,24.0
1979-03-02 12:32:09.370 ,5,1,0.,24.0,0.,24.0
1979-03-02 12:32:33.370 ,4,1,0.,24.0,0.,24.0
1979-03-02 12:32:57.370 ,3,1,0.,24.0,0.,24.0
1979-03-02 12:33:21.370 ,2,1,0.,24.0,0.,24.0
1979-03-02 12:33:45.370 ,1,1,0.,24.0,0.,24.0
1979-03-02 12:34:09.370 ,0,1,0.,24.0,0.,24.0
1979-03-02 12:34:33.370 ,0,1,0.,24.0,0.,24.0
1979-03-02 12:34:57.370 ,1,1,0.,24.0,0.,24.0
1979-03-02 12:35:21.370 ,2,1,0.,24.0,0.,24.0
1979-03-02 12:35:45.370 ,3,1,0.,24.0,0.,24.0
1979-03-02 12:36:09.370 ,4,1,0.,24.0,0.,24.0
1979-03-02 12:36:33.370 ,5,1,0.,24.0,0.,24.0
1979-03-02 12:36:57.370 ,6,1,0.,24.0,0.,24.0
1979-03-02 12:37:21.370 ,7,1,0.,24.0,0.,24.0
1979-03-02 12:37:45.370 ,7,1,0.,24.0,0.,24.0
1979-03-02 12:38:09.370 ,6,1,0.,24.0,0.,24.0
1979-03-02 12:38:33.370 ,5,1,0.,24.0,0.,24.0
1979-03-02 12:38:57.370 ,4,1,0.,24.0,0.,24.0
1979-03-02 12:39:21.370 ,3,1,0.,24.0,0.,24.0
1979-03-02 12:39:45.370 ,2,1,0.,24.0,0.,24.0
1979-03-02 12:40:09.370 ,1,1,0.,24.0,0.,24.0
1979-03-02 12:40:33.370 ,0,1,0.,24.0,0.,24.0
1979-03-02 12:40:57.370 ,0,1,0.,24.0,0.,24.0
1979-03-02 12:41:21.370 ,1,1,0.,24.0,0.,24.0
1979-03-02 12:41:45.370 ,2,1,0.,24.0,0.,24.0
1979-03-02 12:42:09.370 ,3,1,0.,24.0,0.,24.0
1979-03-02 12:42:33.370 ,4,1,0.,24.0,0.,24.0
1979-03-02 12:42:57.370 ,5,1,0.,24.0,0.,24.0
1979-03-02 12:43:21.370 ,6,1,0.,24.0,0.,24.0
1979-03-02 12:43:45.370 ,7,1,0.,24.0,0.,24.0
1979-03-02 12:44:09.370 ,7,1,0.,24.0,0.,24.0
1979-03-02 12:44:33.370 ,6,1,0.,24.0,0.,24.0
1979-03-02 12:44:57.370 ,5,1,0.,24.0,0.,24.0
1979-03-02 12:45:21.370 ,4,1,0.,24.0,0.,24.0
1979-03-02 12:45:45.370 ,3,1,0.,24.0,0.,24.0
1979-03-02 12:46:09.370 ,2,1,0.,24.0,0.,24.0
1979-03-02 12:46:33.370 ,1,1,0.,24.0,0.,24.0
1979-03-02 12:46:57.370 ,0,1,0.,24.0,0.,24.0
1979-03-02 12:47:21.370 ,0,1,0.,24.0,0.,24.0
1979-03-02 12:47:45.370 ,1,1,0.,24.0,0.,24.0
1979-03-02 12:48:09.370 ,2,1,0.,24.0,0.,24.0
1979-03-02 12:48:33.370 ,3,1,0.,24.0,0.,24.0
1979-03-02 12:48:57.370 ,4,1,0.,24.0,0.,24.0
1979-03-02 12:49:21.370 ,5,1,0.,24.0,0.,24.0
1979-03-02 12:49:45.370 ,6,1,0.,24.0,0.,24.0
1979-03-02 12:50:09.370 ,7,1,0.,24.0,0.,24.0
1979-03-02 12:50:33.370 ,7,1,0.,24.0,0.,24.0
1979-03-02 12:50:57.370 ,6,1,0.,24.0,0.,24.0
1979-03-02 12:51:21.370 ,5,1,0.,24.0,0.,24.0
1979-03-02 12:51:45.370 ,4,1,0.,24.0,0.,24.0
1979-03-02 12:52:09.370 ,3,1,0.,24.0,0.,24.0
1979-03-02 12:52:33.370 ,2,1,0.,24.0,0.,24.0
1979-03-02 12:52:57.370 ,1,1,0.,24.0,0.,24.0
1979-03-02 12:53:21.370 ,0,1,1.,24.0,0.,24.0
1979-03-02 12:53:45.370 ,0,1,0.,24.0,0.,24.0
1979-03-02 12:54:09.370 ,1,1,0.,24.0,0.,24.0
1979-03-02 12:54:33.370 ,2,1,0.,24.0,0.,24.0
1979-03-02 12:54:57.370 ,3,1,0.,24.0,0.,24.0
1979-03-02 12:55:21.370 ,4,1,0.,24.0,0.,24.0
1979-03-02 12:55:45.370 ,5,1,0.,24.0,0.,24.0
1979-03-02 12:56:09.370 ,6,1,0.,24.0,0.,24.0
1979-03-02 12:56:33.370 ,7,1,0.,24.0,0.,24.0
1979-03-02 12:56:57.370 ,7,1,0.,24.0,0.,24.0
1979-03-02 12:57:21.370 ,6,1,0.,24.0,0.,24.0
1979-03-02 12:57:45.370 ,5,1,0.,24.0,0.,24.0
1979-03-02 12:58:09.370 ,4,1,0.,24.0,0.,24.0
1979-03-02 12:58:33.370 ,3,1,0.,24.0,0.,24.0
1979-03-02 12:58:57.370 ,2,1,0.,24.0,0.,24.0
1979-03-02 12:59:21.370 ,1,1,0.,24.0,0.,24.0
1979-03-02 12:59:45.370 ,0,1,0.,24.0,0.,24.0
1979-03-02 13:00:09.370 ,0,1,0.,24.0,0.,24.0
1979-03-02 13:00:33.370 ,1,1,0.,24.0,0.,24.0
1979-03-02 13:00:57.370 ,2,1,0.,24.0,0.,24.0
1979-03-02 13:01:21.370 ,3,1,0.,24.0,0.,24.0
1979-03-02 13:01:45.370 ,4,1,0.,24.0,0.,24.0
1979-03-02 13:02:09.370 ,5,1,0.,24.0,0.,24.0
1979-03-02 13:02:33.370 ,6,1,0.,24.0,0.,24.0
1979-03-02 13:03:21.370 ,7,1,0.,24.0,0.,24.0
1979-03-02 13:03:45.370 ,6,1,0.,24.0,0.,24.0
1979-03-02 13:04:09.370 ,5,1,0.,24.0,0.,24.0
1979-03-02 13:04:33.370 ,4,1,0.,24.0,0.,24.0
1979-03-02 13:04:57.370 ,3,1,0.,24.0,0.,24.0
1979-03-02 13:05:21.370 ,2,1,0.,24.0,0.,24.0
1979-03-02 13:05:45.370 ,1,1,1.,24.0,0.,24.0
1979-03-02 13:06:09.370 ,0,1,0.,24.0,0.,24.0
1979-03-02 13:06:33.370 ,0,1,0.,24.0,0.,24.0
1979-03-02 13:06:57.370 ,1,1,0.,24.0,0.,24.0
1979-03-02 13:07:21.370 ,2,1,0.,24.0,0.,24.0
1979-03-02 13:07:45.370 ,3,1,0.,24.0,0.,24.0
1979-03-02 13:08:09.370 ,4,1,0.,24.0,0.,24.0
1979-03-02 13:08:33.370 ,5,1,0.,24.0,0.,24.0
1979-03-02 13:08:57.370 ,6,1,0.,24.0,0.,24.0
1979-03-02 13:09:21.370 ,7,1,0.,24.0,0.,24.0
1979-03-02 13:09:45.370 ,7,1,0.,24.0,0.,24.0
1979-03-02 13:10:09.370 ,6,1,0.,24.0,0.,24.0
1979-03-02 13:10:33.370 ,5,1,1.,24.0,0.,24.0
1979-03-02 13:10:57.370 ,4,1,0.,24.0,0.,24.0
1979-03-02 13:11:21.370 ,3,1,0.,24.0,0.,24.0
1979-03-02 13:11:45.370 ,2,1,0.,24.0,0.,24.0
1979-03-02 13:12:09.370 ,1,1,0.,24.0,0.,24.0
1979-03-02 13:12:33.370 ,0,1,0.,24.0,0.,24.0
1979-03-02 13:12:57.370 ,0,1,0.,24.0,0.,24.0
1979-03-02 13:13:21.370 ,1,1,0.,24.0,0.,24.0
1979-03-02 13:13:45.370 ,2,1,0.,24.0,0.,24.0
1979-03-02 13:14:09.370 ,3,1,0.,24.0,0.,24.0
1979-03-02 13:14:33.370 ,4,1,0.,24.0,0.,24.0
1979-03-02 13:14:57.370 ,5,1,0.,24.0,0.,24.0
1979-03-02 13:15:21.370 ,6,1,0.,24.0,0.,24.0
1979-03-02 13:15:45.370 ,7,1,0.,24.0,0.,24.0
1979-03-02 13:16:09.370 ,7,1,0.,24.0,0.,24.0
1979-03-02 13:16:33.370 ,6,1,0.,24.0,0.,24.0
1979-03-02 13:16:57.370 ,5,1,0.,24.0,0.,24.0
1979-03-02 13:17:21.370 ,4,1,0.,24.0,0.,24.0
1979-03-02 13:17:45.370 ,3,1,0.,24.0,0.,24.0
1979-03-02 13:18:09.370 ,2,1,0.,24.0,0.,24.0
1979-03-02 13:18:33.370 ,1,1,0.,24.0,0.,24.0
1979-03-02 13:18:57.370 ,0,1,0.,24.0,0.,24.0
1979-03-02 13:19:21.370 ,0,1,0.,24.0,0.,24.0
1979-03-02 13:19:45.370 ,1,1,0.,24.0,0.,24.0
1979-03-02 13:20:09.370 ,2,1,0.,24.0,0.,24.0
1979-03-02 13:20:33.370 ,3,1,0.,24.0,0.,24.0
1979-03-02 13:20:57.370 ,4,1,0.,24.0,0.,24.0
1979-03-02 13:21:21.370 ,5,1,0.,24.0,0.,24.0
1979-03-02 13:21:45.370 ,6,1,0.,24.0,0.,24.0
1979-03-02 13:22:09.370 ,7,1,0.,24.0,0.,24.0
1979-03-02 13:22:33.370 ,7,1,0.,24.0,0.,24.0
1979-03-02 13:22:57.370 ,6,1,0.,24.0,0.,24.0
1979-03-02 13:23:21.370 ,5,1,0.,24.0,0.,24.0
1979-03-02 13:23:45.370 ,4,1,0.,24.0,0.,24.0
1979-03-02 13:24:09.370 ,3,1,0.,24.0,0.,24.0
1979-03-02 13:24:33.370 ,2,1,0.,24.0,0.,24.0
1979-03-02 13:24:57.370 ,0,0,,0,,0
1979-03-02 13:25:21.370 ,0,0,,0,,0
1979-03-02 13:28:11.170 ,0,0,0.,24.0,0.,24.0
1979-03-02 13:28:33.370 ,7,1,0.,24.0,0.,24.0
1979-03-02 13:28:57.370 ,7,1,0.,24.0,0.,24.0
1979-03-02 13:29:21.370 ,6,1,0.,24.0,0.,24.0
1979-03-02 13:29:45.370 ,5,1,0.,24.0,0.,24.0
1979-03-02 13:30:09.370 ,4,1,0.,24.0,0.,24.0
1979-03-02 13:30:33.370 ,3,1,0.,24.0,0.,24.0
1979-03-02 13:30:57.370 ,2,1,0.,24.0,0.,24.0
1979-03-02 13:31:21.370 ,1,1,0.,24.0,0.,24.0
1979-03-02 13:31:45.370 ,0,1,0.,24.0,0.,24.0
1979-03-02 13:32:09.370 ,0,1,0.,24.0,0.,24.0
1979-03-02 13:32:33.370 ,1,1,0.,24.0,0.,24.0
1979-03-02 13:32:57.370 ,2,1,0.,24.0,0.,24.0
1979-03-02 13:33:21.370 ,3,1,0.,24.0,0.,24.0
1979-03-02 13:33:45.370 ,4,1,0.,24.0,0.,24.0
1979-03-02 13:34:09.370 ,5,1,0.,24.0,0.,24.0
1979-03-02 13:34:33.370 ,6,1,0.,24.0,0.,24.0
1979-03-02 13:34:57.370 ,7,1,0.,24.0,0.,24.0
1979-03-02 13:35:21.370 ,7,1,0.,24.0,0.,24.0
1979-03-02 13:35:45.370 ,6,1,0.,24.0,0.,24.0
1979-03-02 13:36:09.370 ,5,1,0.,24.0,0.,24.0
1979-03-02 13:36:33.370 ,4,1,0.,24.0,0.,24.0
1979-03-02 13:36:57.370 ,3,1,0.,24.0,0.,24.0
1979-03-02 13:37:21.370 ,2,1,0.,24.0,0.,24.0
1979-03-02 13:37:45.370 ,1,1,0.,24.0,0.,24.0
1979-03-02 13:38:09.370 ,0,1,0.,24.0,0.,24.0
1979-03-02 13:38:33.370 ,0,1,0.,24.0,0.,24.0
1979-03-02 13:38:57.370 ,1,1,0.,24.0,0.,24.0
1979-03-02 13:39:21.370 ,2,1,0.,24.0,0.,24.0
1979-03-02 13:39:45.370 ,3,1,0.,24.0,0.,24.0
1979-03-02 13:40:09.370 ,4,1,0.,24.0,0.,24.0
1979-03-02 13:40:33.370 ,5,1,0.,24.0,0.,24.0
1979-03-02 13:40:57.370 ,6,1,0.,24.0,0.,24.0
1979-03-02 13:41:21.370 ,7,1,0.,24.0,0.,24.0
1979-03-02 13:41:45.370 ,7,1,0.,24.0,0.,24.0
1979-03-02 13:42:09.370 ,0,0,0.,24.0,0.,24.0
1979-03-02 13:43:10.570 ,0,0,0.,24.0,0.,24.0
1979-03-02 13:43:21.370 ,3,1,0.,24.0,0.,24.0
1979-03-02 13:43:45.370 ,0,0,,0,,0
1979-03-02 13:44:09.370 ,0,0,0.,24.0,0.,24.0
1979-03-02 13:44:33.370 ,0,1,0.,24.0,0.,24.0
1979-03-02 13:44:57.370 ,0,1,0.,24.0,0.,24.0
1979-03-02 13:45:21.370 ,1,1,0.,24.0,0.,24.0
1979-03-02 13:45:45.370 ,2,1,0.,24.0,0.,24.0
1979-03-02 13:46:09.370 ,3,1,0.,24.0,0.,24.0
1979-03-02 13:46:33.370 ,4,1,0.,24.0,0.,24.0
1979-03-02 13:46:57.370 ,5,1,0.,24.0,0.,24.0
1979-03-02 13:47:21.370 ,6,1,0.,24.0,0.,24.0
1979-03-02 13:47:45.370 ,7,1,0.,24.0,0.,24.0
1979-03-02 13:48:09.370 ,7,1,0.,24.0,0.,24.0
1979-03-02 13:48:33.370 ,6,1,0.,24.0,0.,24.0
1979-03-02 13:48:57.370 ,5,1,0.,24.0,0.,24.0
1979-03-02 13:49:21.370 ,4,1,0.,24.0,0.,24.0
1979-03-02 13:49:45.370 ,3,1,0.,24.0,0.,24.0
1979-03-02 13:50:09.370 ,2,1,0.,24.0,0.,24.0
1979-03-02 13:50:33.370 ,1,1,0.,24.0,0.,24.0
1979-03-02 13:50:57.370 ,0,1,0.,24.0,0.,24.0
1979-03-02 13:51:21.370 ,0,1,0.,24.0,0.,24.0
1979-03-02 13:51:45.370 ,1,1,0.,24.0,0.,24.0
1979-03-02 13:52:09.370 ,2,1,0.,24.0,0.,24.0
1979-03-02 13:52:33.370 ,3,1,0.,24.0,0.,24.0
1979-03-02 13:52:57.370 ,4,1,0.,24.0,0.,24.0
1979-03-02 13:53:21.370 ,5,1,0.,24.0,0.,24.0
1979-03-02 13:53:45.370 ,6,1,0.,24.0,0.,24.0
1979-03-02 13:54:09.370 ,7,1,0.,24.0,0.,24.0
1979-03-02 13:54:33.370 ,0,0,0.,24.0,0.,24.0
1979-03-02 13:54:57.370 ,6,1,0.,24.0,0.,24.0
1979-03-02 13:55:21.370 ,5,1,0.,24.0,0.,24.0
1979-03-02 13:55:45.370 ,4,1,0.,24.0,0.,24.0
1979-03-02 13:56:09.370 ,3,1,0.,24.0,0.,24.0
1979-03-02 13:56:33.370 ,2,1,0.,24.0,0.,24.0
1979-03-02 13:56:57.370 ,1,1,0.,24.0,0.,24.0
1979-03-02 13:57:21.370 ,0,1,0.,24.0,0.,24.0
1979-03-02 13:57:45.370 ,0,1,0.,24.0,0.,24.0
1979-03-02 13:58:09.370 ,1,1,0.,24.0,0.,24.0
1979-03-02 13:58:33.370 ,2,1,0.,24.0,0.,24.0
1979-03-02 13:58:57.370 ,3,1,0.,24.0,0.,24.0
1979-03-02 13:59:21.370 ,4,1,0.,24.0,0.,24.0
1979-03-02 13:59:45.370 ,5,1,0.,24.0,0.,24.0
1979-03-02 14:00:09.370 ,6,1,0.,24.0,0.,24.0
1979-03-02 14:00:33.370 ,7,1,0.,24.0,0.,24.0
1979-03-02 14:00:57.370 ,7,1,0.,24.0,0.,24.0
1979-03-02 14:01:21.370 ,6,1,0.,24.0,0.,24.0
1979-03-02 14:01:45.370 ,5,1,0.,24.0,0.,24.0
1979-03-02 14:02:09.370 ,4,1,0.,24.0,0.,24.0
1979-03-02 14:02:33.370 ,3,1,0.,24.0,0.,24.0
1979-03-02 14:02:57.370 ,2,1,0.,24.0,0.,24.0
1979-03-02 14:03:21.370 ,1,1,0.,24.0,0.,24.0
1979-03-02 14:03:45.370 ,0,1,0.,24.0,0.,24.0
1979-03-02 14:04:09.370 ,0,1,0.,24.0,0.,24.0
1979-03-02 14:04:33.370 ,1,1,0.,24.0,0.,24.0
1979-03-02 14:04:57.370 ,2,1,0.,24.0,0.,24.0
1979-03-02 14:05:21.370 ,3,1,0.,24.0,0.,24.0
1979-03-02 14:05:45.370 ,4,1,0.,24.0,0.,24.0
1979-03-02 14:06:09.370 ,5,1,0.,24.0,0.,24.0
1979-03-02 14:06:33.370 ,6,1,0.,24.0,0.,24.0
1979-03-02 14:06:57.370 ,7,1,0.,24.0,0.,24.0
1979-03-02 14:07:21.370 ,7,1,0.,24.0,0.,24.0
1979-03-02 14:07:45.370 ,6,1,0.,24.0,0.,24.0
1979-03-02 14:08:09.370 ,5,1,0.,24.0,0.,24.0
1979-03-02 14:08:33.370 ,4,1,0.,24.0,0.,24.0
1979-03-02 14:08:57.370 ,3,1,0.,24.0,0.,24.0
1979-03-02 14:09:21.370 ,2,1,0.,24.0,0.,24.0
1979-03-02 14:09:45.370 ,1,1,0.,24.0,0.,24.0
1979-03-02 14:10:09.370 ,0,1,0.,24.0,0.,24.0
1979-03-02 14:10:33.370 ,0,1,0.,24.0,0.,24.0
1979-03-02 14:10:57.370 ,1,1,0.,24.0,0.,24.0
1979-03-02 14:11:21.370 ,2,1,0.,24.0,0.,24.0
1979-03-02 14:11:45.370 ,3,1,0.,24.0,0.,24.0
1979-03-02 14:12:09.370 ,4,1,0.,24.0,0.,24.0
1979-03-02 14:12:33.370 ,5,1,0.,24.0,0.,24.0
1979-03-02 14:12:57.370 ,6,1,0.,24.0,0.,24.0
1979-03-02 14:13:21.370 ,7,1,0.,24.0,0.,24.0
1979-03-02 14:13:45.370 ,7,1,0.,24.0,0.,24.0
1979-03-02 14:14:09.370 ,6,1,0.,24.0,0.,24.0
1979-03-02 14:14:33.370 ,5,1,0.,24.0,0.,24.0
1979-03-02 14:14:57.370 ,4,1,0.,24.0,0.,24.0
1979-03-02 14:15:21.370 ,3,1,0.,24.0,0.,24.0
1979-03-02 14:15:45.370 ,2,1,0.,24.0,0.,24.0
1979-03-02 14:16:09.370 ,1,1,0.,24.0,0.,24.0
1979-03-02 14:16:33.370 ,0,1,0.,24.0,0.,24.0
1979-03-02 14:16:57.370 ,0,1,0.,24.0,0.,24.0
1979-03-02 14:17:21.370 ,1,1,0.,24.0,0.,24.0
1979-03-02 14:17:45.370 ,2,1,0.,24.0,0.,24.0
1979-03-02 14:18:09.370 ,3,1,0.,24.0,0.,24.0
1979-03-02 14:18:33.370 ,4,1,0.,24.0,0.,24.0
1979-03-02 14:18:57.370 ,5,1,0.,24.0,0.,24.0
1979-03-02 14:19:21.370 ,6,1,0.,24.0,0.,24.0
1979-03-02 14:19:45.370 ,7,1,0.,24.0,0.,24.0
1979-03-02 14:20:09.370 ,7,1,0.,24.0,0.,24.0
1979-03-02 14:20:33.370 ,6,1,0.,24.0,0.,24.0
1979-03-02 14:20:57.370 ,5,1,0.,24.0,0.,24.0
1979-03-02 14:21:21.370 ,4,1,1.,24.0,0.,24.0
1979-03-02 14:21:45.370 ,3,1,0.,24.0,0.,24.0
1979-03-02 14:22:09.370 ,2,1,0.,24.0,0.,24.0
1979-03-02 14:22:33.370 ,1,1,0.,24.0,0.,24.0
1979-03-02 14:22:57.370 ,0,1,0.,24.0,0.,24.0
1979-03-02 14:23:21.370 ,0,1,0.,24.0,0.,24.0
1979-03-02 14:23:45.370 ,1,1,0.,24.0,0.,24.0
1979-03-02 14:24:09.370 ,2,1,0.,24.0,0.,24.0
1979-03-02 14:24:33.370 ,3,1,0.,24.0,0.,24.0
1979-03-02 14:24:57.370 ,4,1,0.,24.0,0.,24.0
1979-03-02 14:25:21.370 ,5,1,0.,24.0,0.,24.0
1979-03-02 14:25:45.370 ,6,1,0.,24.0,0.,24.0
1979-03-02 14:26:09.370 ,7,1,0.,24.0,0.,24.0
1979-03-02 14:26:33.370 ,7,1,0.,24.0,0.,24.0
1979-03-02 14:26:57.370 ,6,1,0.,24.0,0.,24.0
1979-03-02 14:27:21.370 ,5,1,0.,24.0,0.,24.0
1979-03-02 14:27:45.370 ,4,1,0.,24.0,0.,24.0
1979-03-02 14:28:09.370 ,3,1,0.,24.0,0.,24.0
1979-03-02 14:28:33.370 ,2,1,0.,24.0,0.,24.0
1979-03-02 14:28:57.370 ,1,1,0.,24.0,0.,24.0
1979-03-02 14:29:21.370 ,0,1,0.,24.0,0.,24.0
1979-03-02 14:29:45.370 ,0,1,0.,24.0,0.,24.0
1979-03-02 14:30:09.370 ,1,1,0.,24.0,0.,24.0
1979-03-02 14:30:33.370 ,2,1,0.,24.0,0.,24.0
1979-03-02 14:30:57.370 ,3,1,0.,24.0,0.,24.0
1979-03-02 14:31:21.370 ,4,1,0.,24.0,0.,24.0
1979-03-02 14:31:45.370 ,5,1,0.,24.0,0.,24.0
1979-03-02 14:32:09.370 ,6,1,1.,24.0,0.,24.0
1979-03-02 14:32:33.370 ,7,1,0.,24.0,0.,24.0
1979-03-02 14:32:57.370 ,0,0,,0,,0
1979-03-02 14:33:21.370 ,0,0,0.,24.0,0.,24.0
1979-03-02 14:33:47.770 ,0,0,0.,24.0,0.,24.0
1979-03-02 14:34:09.370 ,4,1,0.,24.0,0.,24.0
1979-03-02 14:34:33.370 ,3,1,0.,24.0,0.,24.0
1979-03-02 14:34:57.370 ,2,1,0.,24.0,0.,24.0
1979-03-02 14:35:21.370 ,1,1,0.,24.0,0.,24.0
1979-03-02 14:35:45.370 ,0,1,0.,24.0,0.,24.0
1979-03-02 14:36:09.370 ,0,1,0.,24.0,0.,24.0
1979-03-02 14:36:33.370 ,1,1,0.,24.0,0.,24.0
1979-03-02 14:36:57.370 ,2,1,0.,24.0,0.,24.0
1979-03-02 14:37:21.370 ,3,1,0.,24.0,0.,24.0
1979-03-02 14:37:45.370 ,4,1,0.,24.0,0.,24.0
1979-03-02 14:38:09.370 ,5,1,0.,24.0,0.,24.0
1979-03-02 14:38:33.370 ,6,1,0.,24.0,0.,24.0
1979-03-02 14:38:57.370 ,7,1,0.,24.0,0.,24.0
1979-03-02 14:39:21.370 ,7,1,0.,24.0,0.,24.0
1979-03-02 14:39:45.370 ,6,1,0.,24.0,0.,24.0
1979-03-02 14:40:09.370 ,5,1,0.,24.0,0.,24.0
1979-03-02 14:40:33.370 ,4,1,0.,24.0,0.,24.0
1979-03-02 14:40:57.370 ,3,1,0.,24.0,0.,24.0
1979-03-02 14:41:21.370 ,2,1,0.,24.0,0.,24.0
1979-03-02 14:41:45.370 ,1,1,0.,24.0,0.,24.0
1979-03-02 14:42:09.370 ,0,1,0.,24.0,0.,24.0
1979-03-02 14:42:33.370 ,0,1,0.,24.0,0.,24.0
1979-03-02 14:42:57.370 ,1,1,0.,24.0,0.,24.0
1979-03-02 14:43:21.370 ,2,1,0.,24.0,0.,24.0
1979-03-02 14:43:45.370 ,3,1,0.,24.0,0.,24.0
1979-03-02 14:44:09.370 ,4,1,0.,24.0,0.,24.0
1979-03-02 14:44:33.370 ,5,1,0.,24.0,0.,24.0
1979-03-02 14:44:57.370 ,6,1,0.,24.0,0.,24.0
1979-03-02 14:45:21.370 ,7,1,0.,24.0,0.,24.0
1979-03-02 14:45:45.370 ,7,1,0.,24.0,0.,24.0
1979-03-02 14:46:09.370 ,6,1,0.,24.0,0.,24.0
1979-03-02 14:46:33.370 ,5,1,0.,24.0,0.,24.0
1979-03-02 14:46:57.370 ,4,1,0.,24.0,0.,24.0
1979-03-02 14:47:21.370 ,3,1,0.,24.0,0.,24.0
1979-03-02 14:47:45.370 ,2,1,0.,24.0,0.,24.0
1979-03-02 14:48:09.370 ,1,1,0.,24.0,0.,24.0
1979-03-02 14:48:33.370 ,0,1,0.,24.0,0.,24.0
1979-03-02 14:48:57.370 ,0,1,0.,24.0,0.,24.0
1979-03-02 14:49:21.370 ,1,1,0.,24.0,0.,24.0
1979-03-02 14:49:45.370 ,2,1,0.,24.0,0.,24.0
1979-03-02 14:50:09.370 ,3,1,0.,24.0,0.,24.0
1979-03-02 14:50:33.370 ,4,1,0.,24.0,0.,24.0
1979-03-02 14:50:57.370 ,5,1,0.,24.0,0.,24.0
1979-03-02 14:51:21.370 ,6,1,0.,24.0,0.,24.0
1979-03-02 14:51:45.370 ,7,1,0.,24.0,0.,24.0
1979-03-02 14:52:09.370 ,7,1,0.,24.0,0.,24.0
1979-03-02 14:52:33.370 ,6,1,0.,24.0,0.,24.0
1979-03-02 14:52:57.370 ,5,1,0.,24.0,0.,24.0
1979-03-02 14:53:21.370 ,4,1,0.,24.0,0.,24.0
1979-03-02 14:53:45.370 ,3,1,0.,24.0,0.,24.0
1979-03-02 14:54:09.370 ,2,1,0.,24.0,0.,24.0
1979-03-02 14:54:33.370 ,1,1,0.,24.0,0.,24.0
1979-03-02 14:54:57.370 ,0,1,0.,24.0,0.,24.0
1979-03-02 14:55:21.370 ,0,1,0.,24.0,0.,24.0
1979-03-02 14:55:45.370 ,1,1,0.,24.0,0.,24.0
1979-03-02 14:56:09.370 ,2,1,0.,24.0,0.,24.0
1979-03-02 14:56:33.370 ,3,1,0.,24.0,0.,24.0
1979-03-02 14:56:57.370 ,4,1,0.,24.0,0.,24.0
1979-03-02 14:57:21.370 ,5,1,0.,24.0,0.,24.0
1979-03-02 14:57:45.370 ,6,1,0.,24.0,0.,24.0
1979-03-02 14:58:09.370 ,7,1,0.,24.0,0.,24.0
1979-03-02 14:58:33.370 ,7,1,0.,24.0,0.,24.0
1979-03-02 14:58:57.370 ,6,1,0.,24.0,0.,24.0
1979-03-02 14:59:21.370 ,5,1,0.,24.0,0.,24.0
1979-03-02 14:59:45.370 ,4,1,0.,24.0,0.,24.0
1979-03-02 15:00:09.370 ,3,1,0.,24.0,0.,24.0
